Location: T�bingen+AIT
(48.5342°N, 9.0700°E)
Time: 20:25:25
(UTC+02:00)

ATLAS 2AS CENTAUR R/B - Pass Details

Date: 14 September 2017
Orbit: 906 x 1306 km, 63.7° (Epoch: 18 September)

Event Time Altitude Azimuth Distance (km) Brightness Sun altitude
Rises 23:39:19 0° 317° (NW) 4,304 6.9 -34.0°
Reaches altitude 10° 23:42:14 10° 320° (NW) 3,321 6.1 -34.3°
Enters shadow 23:50:06 72° 30° (NNE) 1,322 3.1 -34.9°
